Location: Alladorf
(49.9620°N, 11.3790°E)
Time: 20:33:25
(UTC+00:00)

USA 306 - Pass Details

Date: 29 November 2020
Orbit: 565 x 579 km, 54.0° (Epoch: 22 January)

Event Time Altitude Azimuth Distance (km) Brightness Sun altitude
Exits shadow 04:13:02 47° 15° (NNE) 772 3.5 -24.2°
Drops below altitude 10° 04:16:55 10° 75° (ENE) 1,897 6.5 -23.6°
Sets 04:19:15 0° 81° (E) 2,796 7.7 -23.2°
